This demonstration page uses our WeatherBlox Daily Observations layout. Learn more.

Left ArrowRight Arrow

39.12711, -84.51439

Hourly Observations for July 22, 2018

Temp ( °F °C ) Dew Point ( °F °C ) Humidity (%) Winds ( mph kmh ) Pressure ( in mb ) Visibility ( mi km ) Precip ( " mm )
12:53 am 00:53 Cloudy with Light Rain 70 21.1 70 21.1 100 100 Calm 29.68 1005 5 8 0.02 0.51
1:18 am 01:18 Cloudy 71 21.7 70 21.1 96 96 SSW 6 9 29.68 1005 9 14 0.00 0.03
1:22 am 01:22 Cloudy 71 21.7 70 21.1 96 96 SSW 7 11 29.68 1005 9 14 0.00 0.03
1:29 am 01:29 Cloudy 71 21.7 70 21.1 96 96 SW 6 9 29.68 1005 10 16 0.00 0.03
1:53 am 01:53 Cloudy 71 21.7 70 21.1 96 96 SSW 5 7 29.67 1005 10 16 0.00 0.03
2:53 am 02:53 Cloudy 70 21.1 69 20.6 97 97 S 3 6 29.65 1004 10 16 0.00 0.00
3:44 am 03:44 Cloudy 71 21.7 70 21.1 96 96 WNW 3 6 29.65 1004 10 16 0.00 0.00
3:53 am 03:53 Cloudy 71 21.7 70 21.1 96 96 NW 5 7 29.63 1004 10 16 0.00 0.00
4:08 am 04:08 Cloudy 71 21.7 70 21.1 96 96 NNW 3 6 29.65 1004 10 16 0.00 0.00
4:25 am 04:25 Cloudy 71 21.7 70 21.1 96 96 N 3 6 29.65 1004 10 16 0.00 0.00
4:53 am 04:53 Cloudy 71 21.7 70 21.1 96 96 NNW 5 7 29.64 1004 10 16 0.00 0.00
5:22 am 05:22 Cloudy 70 21.1 69 20.6 97 97 NW 3 6 29.65 1004 10 16 0.00 0.03
5:53 am 05:53 Cloudy with Light Rain 70 21.1 69 20.6 97 97 NW 3 6 29.64 1004 9 14 0.01 0.25
6:27 am 06:27 Cloudy with Heavy Rain 69 20.6 69 20.6 100 100 N 10 17 29.65 1004 2 2 0.08 2.03
6:39 am 06:39 Cloudy with Heavy Rain 69 20.6 69 20.6 100 100 NNE 9 15 29.65 1004 1 1 0.21 5.33
6:51 am 06:51 Cloudy with Heavy Rain 70 21 70 21 100 100 NNE 10 17 29.68 1005 1 2 0.37 9.40
6:53 am 06:53 Cloudy with Heavy Rain 69 20.6 69 20.6 100 100 NNE 9 15 29.66 1004 1 2 0.39 9.91
7:08 am 07:08 Cloudy with Rain 69 20.6 69 20.6 100 100 N 8 13 29.68 1005 3 4 0.06 1.52
7:16 am 07:16 Cloudy with Light Rain 69 20.6 69 20.6 100 100 NNE 8 13 29.68 1005 3 4 0.06 1.52
7:43 am 07:43 Cloudy with Mist and Fog 69 20.6 69 20.6 100 100 NNE 7 11 29.68 1005 3 4 0.08 2.03
7:50 am 07:50 Cloudy 70 21 70 21 100 100 NNE 8 13 29.68 1005 9 14 0.08 2.03
7:53 am 07:53 Cloudy 69 20.6 69 20.6 100 100 NNE 7 11 29.67 1005 8 13 0.08 2.03
8:53 am 08:53 Cloudy with Light Rain 69 20.6 69 20.6 100 100 N 6 9 29.69 1006 4 6 0.00 0.03
9:53 am 09:53 Cloudy 70 21.1 69 20.6 97 97 NNE 7 11 29.70 1006 9 14 0.01 0.25
10:20 am 10:20 Cloudy 72 22.2 69 20.6 91 91 NNE 6 9 29.71 1006 10 16 0.00 0.00
10:53 am 10:53 Cloudy 73 22.8 69 20.6 87 87 NNE 8 13 29.70 1006 10 16 0.00 0.00
11:53 am 11:53 Mostly Cloudy 75 23.9 70 21.1 84 84 NNE 7 11 29.72 1007 10 16 0.00 0.03
12:53 pm 12:53 Cloudy 72 22.2 69 20.6 91 91 NE 8 13 29.73 1007 10 16 0.00 0.03
1:29 pm 13:29 Mostly Cloudy 76 24.4 70 21.1 82 82 ENE 7 11 29.74 1007 10 16 0.00 0.00
1:53 pm 13:53 Mostly Cloudy 78 25.6 71 21.7 79 79 ENE 8 13 29.71 1006 10 16 0.00 0.00
2:53 pm 14:53 Partly Cloudy 80 26.7 69 20.6 69 69 ENE 5 7 29.70 1006 10 16 0.00 0.00
3:53 pm 15:53 Mostly Cloudy 79 26.1 69 20.6 72 72 ENE 10 17 29.70 1006 10 16 0.00 0.00
4:53 pm 16:53 Partly Cloudy 78 25.6 69 20.6 74 74 NE 13 20 29.72 1006 10 16 0.00 0.00
5:53 pm 17:53 Partly Cloudy 79 26.1 69 20.6 72 72 NE 13 20 29.72 1006 10 16 0.00 0.00
6:53 pm 18:53 Partly Cloudy 80 26.7 68 20 67 67 NE 10 17 29.72 1007 10 16 0.00 0.00
7:53 pm 19:53 Partly Cloudy 76 24.4 68 20 77 77 ENE 5 7 29.74 1007 10 16 0.00 0.00
8:53 pm 20:53 Mostly Cloudy 76 24.4 67 19.4 74 74 NNE 7 11 29.77 1008 10 16 0.00 0.00
9:53 pm 21:53 Mostly Cloudy 73 22.8 66 18.9 79 79 NE 7 11 29.79 1009 10 16 0.00 0.00
10:53 pm 22:53 Clear 71 21.7 66 18.9 84 84 ENE 3 6 29.82 1010 10 16 0.00 0.00
11:53 pm 23:53 Mostly Clear 70 21.1 65 18.3 84 84 NNE 12 19 29.83 1010 10 16 0.00 0.00

Powered by AerisWeather